Starlink 32148

operational
NORAD ID: 60263 Int'l Des: 2024-131 Owner: SPXS Country: US Constellation: starlink
LEOCIRCULAR

About Starlink 32148

Description loading...

Live Position

Loading 3D Globe...

Upcoming Passes

Altitude History

Altitude vs Time

uPlot chart will show altitude changes over time

Two-Line Element Set

1 60263U 24131J 25258.42007525 .00000557 00000-0 30916-4 0 9995
2 60263 53.1594 146.5680 0001183 82.0423 278.0712 15.30214921 64935
Epoch: Sep 15, 2025 • Age: 17 hours

Current Status

Altitude 492.3 km
Velocity 7.62 km/s
Sub-Earth Point -48.00°S, 46.7°E
Launch Date Jul 27, 2024
Age 1.1 years
Type internet

Technical Details

Classification Payload
Mass 730.00 kg
Dry Mass 700.00 kg
Total Mass 730.00 kg
Length 0.30 m
Diameter 4.10 m
Span 29.00 m
Shape Box + pan
Manufacturer SPXS
Bus Type Starlink V2M
Phase Status In Orbit
Owner/State SPXS/US

Large Constellations

Loading constellations...